Terminal Aerodrome Forecast
Issued by NWS Portland, OR

Home | Current Version | Previous Version | Text Only | Print | Product List | Glossary On
Versions: 1 2 3 4 5 6 7 8 9 10 11 12 13 14 15 16 17 18 19 20 21 22 23 24 25 26 27 28 29 30 31 32 33 34
000
FTUS46 KPQR 301132
TAFTTD
TAF
KTTD 301132Z 3012/3112 VRB03KT P6SM SCT050 BKN250
     FM301300 28003KT P6SM SCT012 BKN250
     FM301700 31005KT P6SM BKN250
     FM310600 VRB02KT P6SM BKN140 OVC200=

USA.gov is the U.S. government's official web portal to all federal, state and local government web resources and services.